Time,TemperatureF,DewpointF,PressureIn,WindDirection,WindDirectionDegrees,WindSpeedMPH,WindSpeedGustMPH,Humidity,HourlyPrecipIn,Conditions,Clouds,dailyrainin,SoftwareType,DateUTC
2013-06-19 00:00:00,82.5,71.7,29.87,ESE,112,1.0,5.0,70,0.00,,,0.00,WeatherCatV1.13B119,2013-06-19 05:00:00,
2013-06-19 00:05:00,82.5,71.7,29.87,ESE,112,1.0,5.0,70,0.00,,,0.00,WeatherCatV1.13B119,2013-06-19 05:05:00,
2013-06-19 00:10:00,82.5,71.7,29.87,ESE,112,1.0,5.0,70,0.00,,,0.00,WeatherCatV1.13B119,2013-06-19 05:10:00,
2013-06-19 00:15:00,82.5,71.7,29.87,ESE,112,1.0,5.0,70,0.00,,,0.00,WeatherCatV1.13B119,2013-06-19 05:15:00,
2013-06-19 00:20:00,82.5,71.7,29.87,ESE,112,1.0,5.0,70,0.00,,,0.00,WeatherCatV1.13B119,2013-06-19 05:20:00,
2013-06-19 00:25:00,81.5,71.2,29.87,ESE,112,1.0,3.0,71,0.00,,,0.00,WeatherCatV1.13B119,2013-06-19 05:25:00,
2013-06-19 00:30:00,81.5,71.2,29.87,ESE,112,1.0,3.0,71,0.00,,,0.00,WeatherCatV1.13B119,2013-06-19 05:30:00,
2013-06-19 00:35:00,81.5,71.2,29.87,ESE,112,1.0,3.0,71,0.00,,,0.00,WeatherCatV1.13B119,2013-06-19 05:35:00,
2013-06-19 00:40:00,81.5,71.2,29.87,ESE,112,1.0,3.0,71,0.00,,,0.00,WeatherCatV1.13B119,2013-06-19 05:40:00,
2013-06-19 00:45:00,81.5,71.2,29.87,ESE,112,1.0,3.0,71,0.00,,,0.00,WeatherCatV1.13B119,2013-06-19 05:45:00,
2013-06-19 00:50:00,81.5,71.2,29.87,ESE,112,1.0,3.0,71,0.00,,,0.00,WeatherCatV1.13B119,2013-06-19 05:50:00,
2013-06-19 00:55:00,80.9,70.6,29.87,ESE,112,1.0,4.0,71,0.00,,,0.00,WeatherCatV1.13B119,2013-06-19 05:55:00,
2013-06-19 01:00:00,80.9,70.6,29.87,ESE,112,1.0,4.0,71,0.00,,,0.00,WeatherCatV1.13B119,2013-06-19 06:00:00,
2013-06-19 01:05:00,80.9,70.6,29.87,ESE,112,1.0,4.0,71,0.00,,,0.00,WeatherCatV1.13B119,2013-06-19 06:05:00,
2013-06-19 01:10:00,80.9,70.6,29.87,ESE,112,1.0,4.0,71,0.00,,,0.00,WeatherCatV1.13B119,2013-06-19 06:10:00,
2013-06-19 01:15:00,80.9,70.6,29.87,ESE,112,1.0,4.0,71,0.00,,,0.00,WeatherCatV1.13B119,2013-06-19 06:15:00,
2013-06-19 01:20:00,80.9,70.6,29.87,ESE,112,1.0,4.0,71,0.00,,,0.00,WeatherCatV1.13B119,2013-06-19 06:20:00,
2013-06-19 01:25:00,80.0,70.1,29.87,ESE,112,1.0,4.0,72,0.00,,,0.00,WeatherCatV1.13B119,2013-06-19 06:25:00,
2013-06-19 01:30:00,80.0,70.1,29.87,ESE,112,1.0,4.0,72,0.00,,,0.00,WeatherCatV1.13B119,2013-06-19 06:30:00,
2013-06-19 01:35:00,80.0,70.1,29.87,ESE,112,1.0,4.0,72,0.00,,,0.00,WeatherCatV1.13B119,2013-06-19 06:35:00,
2013-06-19 01:40:00,80.0,70.1,29.87,ESE,112,1.0,4.0,72,0.00,,,0.00,WeatherCatV1.13B119,2013-06-19 06:40:00,
2013-06-19 01:45:00,80.0,70.1,29.87,ESE,112,1.0,4.0,72,0.00,,,0.00,WeatherCatV1.13B119,2013-06-19 06:45:00,
2013-06-19 01:50:00,80.0,70.1,29.87,ESE,112,1.0,4.0,72,0.00,,,0.00,WeatherCatV1.13B119,2013-06-19 06:50:00,
2013-06-19 01:55:00,79.2,70.2,29.87,ESE,112,1.0,3.0,74,0.00,,,0.00,WeatherCatV1.13B119,2013-06-19 06:55:00,
2013-06-19 02:00:00,79.2,70.2,29.87,ESE,112,1.0,3.0,74,0.00,,,0.00,WeatherCatV1.13B119,2013-06-19 07:00:00,
2013-06-19 02:05:00,79.2,70.2,29.87,ESE,112,1.0,3.0,74,0.00,,,0.00,WeatherCatV1.13B119,2013-06-19 07:05:00,
2013-06-19 02:10:00,79.2,70.2,29.87,ESE,112,1.0,3.0,74,0.00,,,0.00,WeatherCatV1.13B119,2013-06-19 07:10:00,
2013-06-19 02:15:00,79.2,70.2,29.87,ESE,112,1.0,3.0,74,0.00,,,0.00,WeatherCatV1.13B119,2013-06-19 07:15:00,
2013-06-19 02:20:00,79.2,70.2,29.87,ESE,112,1.0,3.0,74,0.00,,,0.00,WeatherCatV1.13B119,2013-06-19 07:20:00,
2013-06-19 02:25:00,77.9,70.5,29.87,SW,225,0.0,1.0,78,0.00,,,0.00,WeatherCatV1.13B119,2013-06-19 07:25:00,
2013-06-19 02:30:00,77.9,70.5,29.87,SW,225,0.0,1.0,78,0.00,,,0.00,WeatherCatV1.13B119,2013-06-19 07:30:00,
2013-06-19 02:35:00,77.9,70.5,29.87,SW,225,0.0,1.0,78,0.00,,,0.00,WeatherCatV1.13B119,2013-06-19 07:35:00,
2013-06-19 02:40:00,77.9,70.5,29.87,SW,225,0.0,1.0,78,0.00,,,0.00,WeatherCatV1.13B119,2013-06-19 07:40:00,
2013-06-19 02:45:00,77.9,70.5,29.87,SW,225,0.0,1.0,78,0.00,,,0.00,WeatherCatV1.13B119,2013-06-19 07:45:00,
2013-06-19 02:50:00,77.9,70.5,29.87,SW,225,0.0,1.0,78,0.00,,,0.00,WeatherCatV1.13B119,2013-06-19 07:50:00,
2013-06-19 02:55:00,78.0,70.9,29.86,ESE,112,0.0,1.0,79,0.00,,,0.00,WeatherCatV1.13B119,2013-06-19 07:55:00,
2013-06-19 03:00:00,78.0,70.9,29.86,ESE,112,0.0,1.0,79,0.00,,,0.00,WeatherCatV1.13B119,2013-06-19 08:00:00,
2013-06-19 03:05:00,78.0,70.9,29.86,ESE,112,0.0,1.0,79,0.00,,,0.00,WeatherCatV1.13B119,2013-06-19 08:05:00,
2013-06-19 03:10:00,78.0,70.9,29.86,ESE,112,0.0,1.0,79,0.00,,,0.00,WeatherCatV1.13B119,2013-06-19 08:10:00,
2013-06-19 03:15:00,78.0,70.9,29.86,ESE,112,0.0,1.0,79,0.00,,,0.00,WeatherCatV1.13B119,2013-06-19 08:15:00,
2013-06-19 03:20:00,78.0,70.9,29.86,ESE,112,0.0,1.0,79,0.00,,,0.00,WeatherCatV1.13B119,2013-06-19 08:20:00,
2013-06-19 03:25:00,77.8,71.1,29.86,ESE,112,0.0,2.0,80,0.00,,,0.00,WeatherCatV1.13B119,2013-06-19 08:25:00,
2013-06-19 03:30:00,77.8,71.1,29.86,ESE,112,0.0,2.0,80,0.00,,,0.00,WeatherCatV1.13B119,2013-06-19 08:30:00,
2013-06-19 03:35:00,77.8,71.1,29.86,ESE,112,0.0,2.0,80,0.00,,,0.00,WeatherCatV1.13B119,2013-06-19 08:35:00,
2013-06-19 03:40:00,77.8,71.1,29.86,ESE,112,0.0,2.0,80,0.00,,,0.00,WeatherCatV1.13B119,2013-06-19 08:40:00,
2013-06-19 03:45:00,77.8,71.1,29.86,ESE,112,0.0,2.0,80,0.00,,,0.00,WeatherCatV1.13B119,2013-06-19 08:45:00,
2013-06-19 03:50:00,77.8,71.1,29.86,ESE,112,0.0,2.0,80,0.00,,,0.00,WeatherCatV1.13B119,2013-06-19 08:50:00,
2013-06-19 03:55:00,77.6,72.0,29.86,SSE,158,0.0,2.0,83,0.00,,,0.00,WeatherCatV1.13B119,2013-06-19 08:55:00,
2013-06-19 04:00:00,77.6,72.0,29.86,SSE,158,0.0,2.0,83,0.00,,,0.00,WeatherCatV1.13B119,2013-06-19 09:00:00,
2013-06-19 04:05:00,77.6,72.0,29.86,SSE,158,0.0,2.0,83,0.00,,,0.00,WeatherCatV1.13B119,2013-06-19 09:05:00,
2013-06-19 04:10:00,77.6,72.0,29.86,SSE,158,0.0,2.0,83,0.00,,,0.00,WeatherCatV1.13B119,2013-06-19 09:10:00,
2013-06-19 04:15:00,77.6,72.0,29.86,SSE,158,0.0,2.0,83,0.00,,,0.00,WeatherCatV1.13B119,2013-06-19 09:15:00,
2013-06-19 04:20:00,77.6,72.0,29.86,SSE,158,0.0,2.0,83,0.00,,,0.00,WeatherCatV1.13B119,2013-06-19 09:20:00,
2013-06-19 04:25:00,76.8,71.6,29.86,SE,135,0.0,2.0,84,0.00,,,0.00,WeatherCatV1.13B119,2013-06-19 09:25:00,
2013-06-19 04:30:00,76.8,71.6,29.86,SE,135,0.0,2.0,84,0.00,,,0.00,WeatherCatV1.13B119,2013-06-19 09:30:00,
2013-06-19 04:35:00,76.8,71.6,29.86,SE,135,0.0,2.0,84,0.00,,,0.00,WeatherCatV1.13B119,2013-06-19 09:35:00,
2013-06-19 04:40:00,76.8,71.6,29.86,SE,135,0.0,2.0,84,0.00,,,0.00,WeatherCatV1.13B119,2013-06-19 09:40:00,
2013-06-19 04:45:00,76.8,71.6,29.86,SE,135,0.0,2.0,84,0.00,,,0.00,WeatherCatV1.13B119,2013-06-19 09:45:00,
2013-06-19 04:50:00,76.8,71.6,29.86,SE,135,0.0,2.0,84,0.00,,,0.00,WeatherCatV1.13B119,2013-06-19 09:50:00,
2013-06-19 04:55:00,75.9,71.7,29.86,SE,135,0.0,0.0,87,0.00,,,0.00,WeatherCatV1.13B119,2013-06-19 09:55:00,
2013-06-19 05:00:00,75.9,71.7,29.86,SE,135,0.0,0.0,87,0.00,,,0.00,WeatherCatV1.13B119,2013-06-19 10:00:00,
2013-06-19 05:05:00,75.9,71.7,29.86,SE,135,0.0,0.0,87,0.00,,,0.00,WeatherCatV1.13B119,2013-06-19 10:05:00,
2013-06-19 05:10:00,75.9,71.7,29.86,SE,135,0.0,0.0,87,0.00,,,0.00,WeatherCatV1.13B119,2013-06-19 10:10:00,
2013-06-19 05:15:00,75.9,71.7,29.86,SE,135,0.0,0.0,87,0.00,,,0.00,WeatherCatV1.13B119,2013-06-19 10:15:00,
2013-06-19 05:20:00,75.9,71.7,29.86,SE,135,0.0,0.0,87,0.00,,,0.00,WeatherCatV1.13B119,2013-06-19 10:20:00,
2013-06-19 05:25:00,75.8,72.0,29.87,SE,135,0.0,0.0,88,0.00,,,0.00,WeatherCatV1.13B119,2013-06-19 10:25:00,
2013-06-19 05:30:00,75.8,72.0,29.87,SE,135,0.0,0.0,88,0.00,,,0.00,WeatherCatV1.13B119,2013-06-19 10:30:00,
2013-06-19 05:35:00,75.8,72.0,29.87,SE,135,0.0,0.0,88,0.00,,,0.00,WeatherCatV1.13B119,2013-06-19 10:35:00,
2013-06-19 05:40:00,75.8,72.0,29.87,SE,135,0.0,0.0,88,0.00,,,0.00,WeatherCatV1.13B119,2013-06-19 10:40:00,
2013-06-19 05:45:00,75.8,72.0,29.87,SE,135,0.0,0.0,88,0.00,,,0.00,WeatherCatV1.13B119,2013-06-19 10:45:00,
2013-06-19 05:50:00,75.8,72.0,29.87,SE,135,0.0,0.0,88,0.00,,,0.00,WeatherCatV1.13B119,2013-06-19 10:50:00,
2013-06-19 05:55:00,74.8,72.0,29.87,SE,135,0.0,0.0,91,0.00,,,0.00,WeatherCatV1.13B119,2013-06-19 10:55:00,
2013-06-19 06:00:00,74.8,72.0,29.87,SE,135,0.0,0.0,91,0.00,,,0.00,WeatherCatV1.13B119,2013-06-19 11:00:00,
2013-06-19 06:05:00,74.8,72.0,29.87,SE,135,0.0,0.0,91,0.00,,,0.00,WeatherCatV1.13B119,2013-06-19 11:05:00,
2013-06-19 06:10:00,74.8,72.0,29.87,SE,135,0.0,0.0,91,0.00,,,0.00,WeatherCatV1.13B119,2013-06-19 11:10:00,
2013-06-19 06:15:00,74.8,72.0,29.87,SE,135,0.0,0.0,91,0.00,,,0.00,WeatherCatV1.13B119,2013-06-19 11:15:00,
2013-06-19 06:20:00,74.8,72.0,29.87,SE,135,0.0,0.0,91,0.00,,,0.00,WeatherCatV1.13B119,2013-06-19 11:20:00,
2013-06-19 06:25:00,74.0,71.8,29.88,SE,135,0.0,0.0,93,0.00,,,0.00,WeatherCatV1.13B119,2013-06-19 11:25:00,
2013-06-19 06:30:00,74.0,71.8,29.88,SE,135,0.0,0.0,93,0.00,,,0.00,WeatherCatV1.13B119,2013-06-19 11:30:00,
2013-06-19 06:35:00,74.0,71.8,29.88,SE,135,0.0,0.0,93,0.00,,,0.00,WeatherCatV1.13B119,2013-06-19 11:35:00,
2013-06-19 06:40:00,74.0,71.8,29.88,SE,135,0.0,0.0,93,0.00,,,0.00,WeatherCatV1.13B119,2013-06-19 11:40:00,
2013-06-19 06:45:00,74.0,71.8,29.88,SE,135,0.0,0.0,93,0.00,,,0.00,WeatherCatV1.13B119,2013-06-19 11:45:00,
2013-06-19 06:50:00,74.0,71.8,29.88,SE,135,0.0,0.0,93,0.00,,,0.00,WeatherCatV1.13B119,2013-06-19 11:50:00,
2013-06-19 06:55:00,73.7,72.2,29.89,SE,135,0.0,0.0,95,0.00,,,0.00,WeatherCatV1.13B119,2013-06-19 11:55:00,
2013-06-19 07:00:00,73.7,72.2,29.89,SE,135,0.0,0.0,95,0.00,,,0.00,WeatherCatV1.13B119,2013-06-19 12:00:00,
2013-06-19 07:05:00,73.7,72.2,29.89,SE,135,0.0,0.0,95,0.00,,,0.00,WeatherCatV1.13B119,2013-06-19 12:05:00,
2013-06-19 07:10:00,73.7,72.2,29.89,SE,135,0.0,0.0,95,0.00,,,0.00,WeatherCatV1.13B119,2013-06-19 12:10:00,
2013-06-19 07:15:00,73.7,72.2,29.89,SE,135,0.0,0.0,95,0.00,,,0.00,WeatherCatV1.13B119,2013-06-19 12:15:00,
2013-06-19 07:20:00,73.7,72.2,29.89,SE,135,0.0,0.0,95,0.00,,,0.00,WeatherCatV1.13B119,2013-06-19 12:20:00,
2013-06-19 07:25:00,73.6,71.8,29.90,SE,135,0.0,0.0,94,0.00,,,0.00,WeatherCatV1.13B119,2013-06-19 12:25:00,
2013-06-19 07:30:00,73.6,71.8,29.90,SE,135,0.0,0.0,94,0.00,,,0.00,WeatherCatV1.13B119,2013-06-19 12:30:00,
2013-06-19 07:35:00,73.6,71.8,29.90,SE,135,0.0,0.0,94,0.00,,,0.00,WeatherCatV1.13B119,2013-06-19 12:35:00,
2013-06-19 07:40:00,73.6,71.8,29.90,SE,135,0.0,0.0,94,0.00,,,0.00,WeatherCatV1.13B119,2013-06-19 12:40:00,
2013-06-19 07:45:00,73.6,71.8,29.90,SE,135,0.0,0.0,94,0.00,,,0.00,WeatherCatV1.13B119,2013-06-19 12:45:00,
2013-06-19 07:50:00,73.6,71.8,29.90,SE,135,0.0,0.0,94,0.00,,,0.00,WeatherCatV1.13B119,2013-06-19 12:50:00,
2013-06-19 07:55:00,75.5,72.7,29.90,SE,135,0.0,0.0,91,0.00,,,0.00,WeatherCatV1.13B119,2013-06-19 12:55:00,
2013-06-19 08:00:00,75.5,72.7,29.90,SE,135,0.0,0.0,91,0.00,,,0.00,WeatherCatV1.13B119,2013-06-19 13:00:00,
2013-06-19 08:05:00,75.5,72.7,29.90,SE,135,0.0,0.0,91,0.00,,,0.00,WeatherCatV1.13B119,2013-06-19 13:05:00,
2013-06-19 08:10:00,75.5,72.7,29.90,SE,135,0.0,0.0,91,0.00,,,0.00,WeatherCatV1.13B119,2013-06-19 13:10:00,
2013-06-19 08:15:00,75.5,72.7,29.90,SE,135,0.0,0.0,91,0.00,,,0.00,WeatherCatV1.13B119,2013-06-19 13:15:00,
2013-06-19 08:20:00,75.5,72.7,29.90,SE,135,0.0,0.0,91,0.00,,,0.00,WeatherCatV1.13B119,2013-06-19 13:20:00,
2013-06-19 08:25:00,77.3,73.1,29.91,SSE,158,0.0,2.0,87,0.00,,,0.00,WeatherCatV1.13B119,2013-06-19 13:25:00,
2013-06-19 08:30:00,77.3,73.1,29.91,SSE,158,0.0,2.0,87,0.00,,,0.00,WeatherCatV1.13B119,2013-06-19 13:30:00,
2013-06-19 08:35:00,77.3,73.1,29.91,SSE,158,0.0,2.0,87,0.00,,,0.00,WeatherCatV1.13B119,2013-06-19 13:35:00,
2013-06-19 08:40:00,77.3,73.1,29.91,SSE,158,0.0,2.0,87,0.00,,,0.00,WeatherCatV1.13B119,2013-06-19 13:40:00,
2013-06-19 08:45:00,77.3,73.1,29.91,SSE,158,0.0,2.0,87,0.00,,,0.00,WeatherCatV1.13B119,2013-06-19 13:45:00,
2013-06-19 08:50:00,77.3,73.1,29.91,SSE,158,0.0,2.0,87,0.00,,,0.00,WeatherCatV1.13B119,2013-06-19 13:50:00,
2013-06-19 08:55:00,78.5,73.3,29.90,SE,135,1.0,4.0,84,0.00,,,0.00,WeatherCatV1.13B119,2013-06-19 13:55:00,
2013-06-19 09:00:00,78.5,73.3,29.90,SE,135,1.0,4.0,84,0.00,,,0.00,WeatherCatV1.13B119,2013-06-19 14:00:00,
2013-06-19 09:05:00,78.5,73.3,29.90,SE,135,1.0,4.0,84,0.00,,,0.00,WeatherCatV1.13B119,2013-06-19 14:05:00,
2013-06-19 09:10:00,78.5,73.3,29.90,SE,135,1.0,4.0,84,0.00,,,0.00,WeatherCatV1.13B119,2013-06-19 14:10:00,
2013-06-19 09:15:00,78.5,73.3,29.90,SE,135,1.0,4.0,84,0.00,,,0.00,WeatherCatV1.13B119,2013-06-19 14:15:00,
2013-06-19 09:20:00,78.5,73.3,29.90,SE,135,1.0,4.0,84,0.00,,,0.00,WeatherCatV1.13B119,2013-06-19 14:20:00,
2013-06-19 09:25:00,81.6,72.5,29.91,SE,135,1.0,6.0,74,0.00,,,0.00,WeatherCatV1.13B119,2013-06-19 14:25:00,
2013-06-19 09:30:00,81.6,72.5,29.91,SE,135,1.0,6.0,74,0.00,,,0.00,WeatherCatV1.13B119,2013-06-19 14:30:00,
2013-06-19 09:35:00,81.6,72.5,29.91,SE,135,1.0,6.0,74,0.00,,,0.00,WeatherCatV1.13B119,2013-06-19 14:35:00,
2013-06-19 09:40:00,81.6,72.5,29.91,SE,135,1.0,6.0,74,0.00,,,0.00,WeatherCatV1.13B119,2013-06-19 14:40:00,
2013-06-19 09:45:00,81.6,72.5,29.91,SE,135,1.0,6.0,74,0.00,,,0.00,WeatherCatV1.13B119,2013-06-19 14:45:00,
2013-06-19 09:50:00,81.6,72.5,29.91,SE,135,1.0,6.0,74,0.00,,,0.00,WeatherCatV1.13B119,2013-06-19 14:50:00,
2013-06-19 09:55:00,83.6,72.8,29.91,SE,135,2.0,7.0,70,0.00,,,0.00,WeatherCatV1.13B119,2013-06-19 14:55:00,
2013-06-19 10:00:00,83.6,72.8,29.91,SE,135,2.0,7.0,70,0.00,,,0.00,WeatherCatV1.13B119,2013-06-19 15:00:00,
2013-06-19 10:05:00,83.6,72.8,29.91,SE,135,2.0,7.0,70,0.00,,,0.00,WeatherCatV1.13B119,2013-06-19 15:05:00,
2013-06-19 10:10:00,83.6,72.8,29.91,SE,135,2.0,7.0,70,0.00,,,0.00,WeatherCatV1.13B119,2013-06-19 15:10:00,
2013-06-19 10:15:00,83.6,72.8,29.91,SE,135,2.0,7.0,70,0.00,,,0.00,WeatherCatV1.13B119,2013-06-19 15:15:00,
2013-06-19 10:20:00,83.6,72.8,29.91,SE,135,2.0,7.0,70,0.00,,,0.00,WeatherCatV1.13B119,2013-06-19 15:20:00,
2013-06-19 10:25:00,84.9,71.8,29.91,SE,135,2.0,8.0,65,0.00,,,0.00,WeatherCatV1.13B119,2013-06-19 15:25:00,
2013-06-19 10:30:00,84.9,71.8,29.91,SE,135,2.0,8.0,65,0.00,,,0.00,WeatherCatV1.13B119,2013-06-19 15:30:00,
2013-06-19 10:35:00,84.9,71.8,29.91,SE,135,2.0,8.0,65,0.00,,,0.00,WeatherCatV1.13B119,2013-06-19 15:35:00,
2013-06-19 10:40:00,84.9,71.8,29.91,SE,135,2.0,8.0,65,0.00,,,0.00,WeatherCatV1.13B119,2013-06-19 15:40:00,
2013-06-19 10:45:00,84.9,71.8,29.91,SE,135,2.0,8.0,65,0.00,,,0.00,WeatherCatV1.13B119,2013-06-19 15:45:00,
2013-06-19 10:50:00,84.9,71.8,29.91,SE,135,2.0,8.0,65,0.00,,,0.00,WeatherCatV1.13B119,2013-06-19 15:50:00,
2013-06-19 10:55:00,86.2,72.1,29.91,ESE,112,2.0,6.0,63,0.00,,,0.00,WeatherCatV1.13B119,2013-06-19 15:55:00,
2013-06-19 11:00:00,86.2,72.1,29.91,ESE,112,2.0,6.0,63,0.00,,,0.00,WeatherCatV1.13B119,2013-06-19 16:00:00,
2013-06-19 11:05:00,86.2,72.1,29.91,ESE,112,2.0,6.0,63,0.00,,,0.00,WeatherCatV1.13B119,2013-06-19 16:05:00,
2013-06-19 11:10:00,86.2,72.1,29.91,ESE,112,2.0,6.0,63,0.00,,,0.00,WeatherCatV1.13B119,2013-06-19 16:10:00,
2013-06-19 11:15:00,86.2,72.1,29.91,ESE,112,2.0,6.0,63,0.00,,,0.00,WeatherCatV1.13B119,2013-06-19 16:15:00,
2013-06-19 11:20:00,86.2,72.1,29.91,ESE,112,2.0,6.0,63,0.00,,,0.00,WeatherCatV1.13B119,2013-06-19 16:20:00,
2013-06-19 11:25:00,88.4,72.2,29.91,SE,135,2.0,6.0,59,0.00,,,0.00,WeatherCatV1.13B119,2013-06-19 16:25:00,
2013-06-19 11:30:00,88.4,72.2,29.91,SE,135,2.0,6.0,59,0.00,,,0.00,WeatherCatV1.13B119,2013-06-19 16:30:00,
2013-06-19 11:35:00,88.4,72.2,29.91,SE,135,2.0,6.0,59,0.00,,,0.00,WeatherCatV1.13B119,2013-06-19 16:35:00,
2013-06-19 11:40:00,88.4,72.2,29.91,SE,135,2.0,6.0,59,0.00,,,0.00,WeatherCatV1.13B119,2013-06-19 16:40:00,
2013-06-19 11:45:00,88.4,72.2,29.91,SE,135,2.0,6.0,59,0.00,,,0.00,WeatherCatV1.13B119,2013-06-19 16:45:00,
2013-06-19 11:50:00,88.4,72.2,29.91,SE,135,2.0,6.0,59,0.00,,,0.00,WeatherCatV1.13B119,2013-06-19 16:50:00,
2013-06-19 11:55:00,90.5,72.1,29.91,SE,135,2.0,5.0,55,0.00,,,0.00,WeatherCatV1.13B119,2013-06-19 16:55:00,
2013-06-19 12:00:00,90.5,72.1,29.91,SE,135,2.0,5.0,55,0.00,,,0.00,WeatherCatV1.13B119,2013-06-19 17:00:00,
2013-06-19 12:05:00,90.5,72.1,29.91,SE,135,2.0,5.0,55,0.00,,,0.00,WeatherCatV1.13B119,2013-06-19 17:05:00,
2013-06-19 12:10:00,90.5,72.1,29.91,SE,135,2.0,5.0,55,0.00,,,0.00,WeatherCatV1.13B119,2013-06-19 17:10:00,
2013-06-19 12:15:00,90.5,72.1,29.91,SE,135,2.0,5.0,55,0.00,,,0.00,WeatherCatV1.13B119,2013-06-19 17:15:00,
2013-06-19 12:20:00,90.5,72.1,29.91,SE,135,2.0,5.0,55,0.00,,,0.00,WeatherCatV1.13B119,2013-06-19 17:20:00,
2013-06-19 12:25:00,91.6,70.3,29.91,SE,135,2.0,7.0,50,0.00,,,0.00,WeatherCatV1.13B119,2013-06-19 17:25:00,
2013-06-19 12:30:00,91.6,70.3,29.91,SE,135,2.0,7.0,50,0.00,,,0.00,WeatherCatV1.13B119,2013-06-19 17:30:00,
2013-06-19 12:35:00,91.6,70.3,29.91,SE,135,2.0,7.0,50,0.00,,,0.00,WeatherCatV1.13B119,2013-06-19 17:35:00,
2013-06-19 12:40:00,91.6,70.3,29.91,SE,135,2.0,7.0,50,0.00,,,0.00,WeatherCatV1.13B119,2013-06-19 17:40:00,
2013-06-19 12:45:00,91.6,70.3,29.91,SE,135,2.0,7.0,50,0.00,,,0.00,WeatherCatV1.13B119,2013-06-19 17:45:00,
2013-06-19 12:50:00,91.6,70.3,29.91,SE,135,2.0,7.0,50,0.00,,,0.00,WeatherCatV1.13B119,2013-06-19 17:50:00,
2013-06-19 12:55:00,93.4,70.1,29.90,SE,135,2.0,6.0,47,0.00,,,0.00,WeatherCatV1.13B119,2013-06-19 17:55:00,
2013-06-19 13:00:00,93.4,70.1,29.90,SE,135,2.0,6.0,47,0.00,,,0.00,WeatherCatV1.13B119,2013-06-19 18:00:00,
2013-06-19 13:05:00,93.4,70.1,29.90,SE,135,2.0,6.0,47,0.00,,,0.00,WeatherCatV1.13B119,2013-06-19 18:05:00,
2013-06-19 13:10:00,93.4,70.1,29.90,SE,135,2.0,6.0,47,0.00,,,0.00,WeatherCatV1.13B119,2013-06-19 18:10:00,
2013-06-19 13:15:00,93.4,70.1,29.90,SE,135,2.0,6.0,47,0.00,,,0.00,WeatherCatV1.13B119,2013-06-19 18:15:00,
2013-06-19 13:20:00,93.4,70.1,29.90,SE,135,2.0,6.0,47,0.00,,,0.00,WeatherCatV1.13B119,2013-06-19 18:20:00,
2013-06-19 13:25:00,94.9,70.2,29.89,SE,135,2.0,9.0,45,0.00,,,0.00,WeatherCatV1.13B119,2013-06-19 18:25:00,
2013-06-19 13:30:00,94.9,70.2,29.89,SE,135,2.0,9.0,45,0.00,,,0.00,WeatherCatV1.13B119,2013-06-19 18:30:00,
2013-06-19 13:35:00,94.9,70.2,29.89,SE,135,2.0,9.0,45,0.00,,,0.00,WeatherCatV1.13B119,2013-06-19 18:35:00,
2013-06-19 13:40:00,94.9,70.2,29.89,SE,135,2.0,9.0,45,0.00,,,0.00,WeatherCatV1.13B119,2013-06-19 18:40:00,
2013-06-19 13:45:00,94.9,70.2,29.89,SE,135,2.0,9.0,45,0.00,,,0.00,WeatherCatV1.13B119,2013-06-19 18:45:00,
2013-06-19 13:50:00,94.9,70.2,29.89,SE,135,2.0,9.0,45,0.00,,,0.00,WeatherCatV1.13B119,2013-06-19 18:50:00,
2013-06-19 13:55:00,95.8,69.0,29.88,SE,135,2.0,9.0,42,0.00,,,0.00,WeatherCatV1.13B119,2013-06-19 18:55:00,
2013-06-19 14:00:00,95.8,69.0,29.88,SE,135,2.0,9.0,42,0.00,,,0.00,WeatherCatV1.13B119,2013-06-19 19:00:00,
2013-06-19 14:05:00,95.8,69.0,29.88,SE,135,2.0,9.0,42,0.00,,,0.00,WeatherCatV1.13B119,2013-06-19 19:05:00,
2013-06-19 14:10:00,95.8,69.0,29.88,SE,135,2.0,9.0,42,0.00,,,0.00,WeatherCatV1.13B119,2013-06-19 19:10:00,
2013-06-19 14:15:00,95.8,69.0,29.88,SE,135,2.0,9.0,42,0.00,,,0.00,WeatherCatV1.13B119,2013-06-19 19:15:00,
2013-06-19 14:20:00,95.8,69.0,29.88,SE,135,2.0,9.0,42,0.00,,,0.00,WeatherCatV1.13B119,2013-06-19 19:20:00,
2013-06-19 14:25:00,97.1,70.1,29.88,SE,135,2.0,6.0,42,0.00,,,0.00,WeatherCatV1.13B119,2013-06-19 19:25:00,
2013-06-19 14:30:00,97.1,70.1,29.88,SE,135,2.0,6.0,42,0.00,,,0.00,WeatherCatV1.13B119,2013-06-19 19:30:00,
2013-06-19 14:35:00,97.1,70.1,29.88,SE,135,2.0,6.0,42,0.00,,,0.00,WeatherCatV1.13B119,2013-06-19 19:35:00,
2013-06-19 14:40:00,97.1,70.1,29.88,SE,135,2.0,6.0,42,0.00,,,0.00,WeatherCatV1.13B119,2013-06-19 19:40:00,
2013-06-19 14:45:00,97.1,70.1,29.88,SE,135,2.0,6.0,42,0.00,,,0.00,WeatherCatV1.13B119,2013-06-19 19:45:00,
2013-06-19 14:50:00,97.1,70.1,29.88,SE,135,2.0,6.0,42,0.00,,,0.00,WeatherCatV1.13B119,2013-06-19 19:50:00,
2013-06-19 14:55:00,98.3,70.5,29.87,SE,135,2.0,6.0,41,0.00,,,0.00,WeatherCatV1.13B119,2013-06-19 19:55:00,
2013-06-19 15:00:00,98.3,70.5,29.87,SE,135,2.0,6.0,41,0.00,,,0.00,WeatherCatV1.13B119,2013-06-19 20:00:00,
2013-06-19 15:05:00,98.3,70.5,29.87,SE,135,2.0,6.0,41,0.00,,,0.00,WeatherCatV1.13B119,2013-06-19 20:05:00,
2013-06-19 15:10:00,98.3,70.5,29.87,SE,135,2.0,6.0,41,0.00,,,0.00,WeatherCatV1.13B119,2013-06-19 20:10:00,
2013-06-19 15:15:00,98.3,70.5,29.87,SE,135,2.0,6.0,41,0.00,,,0.00,WeatherCatV1.13B119,2013-06-19 20:15:00,
2013-06-19 15:20:00,98.3,70.5,29.87,SE,135,2.0,6.0,41,0.00,,,0.00,WeatherCatV1.13B119,2013-06-19 20:20:00,
2013-06-19 15:25:00,97.9,69.4,29.86,SE,135,3.0,6.0,40,0.00,,,0.00,WeatherCatV1.13B119,2013-06-19 20:25:00,
2013-06-19 15:30:00,97.9,69.4,29.86,SE,135,3.0,6.0,40,0.00,,,0.00,WeatherCatV1.13B119,2013-06-19 20:30:00,
2013-06-19 15:35:00,97.9,69.4,29.86,SE,135,3.0,6.0,40,0.00,,,0.00,WeatherCatV1.13B119,2013-06-19 20:35:00,
2013-06-19 15:40:00,97.9,69.4,29.86,SE,135,3.0,6.0,40,0.00,,,0.00,WeatherCatV1.13B119,2013-06-19 20:40:00,
2013-06-19 15:45:00,97.9,69.4,29.86,SE,135,3.0,6.0,40,0.00,,,0.00,WeatherCatV1.13B119,2013-06-19 20:45:00,
2013-06-19 15:50:00,97.9,69.4,29.86,SE,135,3.0,6.0,40,0.00,,,0.00,WeatherCatV1.13B119,2013-06-19 20:50:00,
2013-06-19 15:55:00,98.2,70.4,29.85,SE,135,3.0,7.0,41,0.00,,,0.00,WeatherCatV1.13B119,2013-06-19 20:55:00,
2013-06-19 16:00:00,98.2,70.4,29.85,SE,135,3.0,7.0,41,0.00,,,0.00,WeatherCatV1.13B119,2013-06-19 21:00:00,
2013-06-19 16:05:00,98.2,70.4,29.85,SE,135,3.0,7.0,41,0.00,,,0.00,WeatherCatV1.13B119,2013-06-19 21:05:00,
2013-06-19 16:10:00,98.2,70.4,29.85,SE,135,3.0,7.0,41,0.00,,,0.00,WeatherCatV1.13B119,2013-06-19 21:10:00,
2013-06-19 16:15:00,98.2,70.4,29.85,SE,135,3.0,7.0,41,0.00,,,0.00,WeatherCatV1.13B119,2013-06-19 21:15:00,
2013-06-19 16:20:00,98.2,70.4,29.85,SE,135,3.0,7.0,41,0.00,,,0.00,WeatherCatV1.13B119,2013-06-19 21:20:00,
2013-06-19 16:25:00,97.8,70.1,29.84,SE,135,3.0,8.0,41,0.00,,,0.00,WeatherCatV1.13B119,2013-06-19 21:25:00,
2013-06-19 16:30:00,97.8,70.1,29.84,SE,135,3.0,8.0,41,0.00,,,0.00,WeatherCatV1.13B119,2013-06-19 21:30:00,
2013-06-19 16:35:00,97.8,70.1,29.84,SE,135,3.0,8.0,41,0.00,,,0.00,WeatherCatV1.13B119,2013-06-19 21:35:00,
2013-06-19 16:40:00,97.8,70.1,29.84,SE,135,3.0,8.0,41,0.00,,,0.00,WeatherCatV1.13B119,2013-06-19 21:40:00,
2013-06-19 16:45:00,97.8,70.1,29.84,SE,135,3.0,8.0,41,0.00,,,0.00,WeatherCatV1.13B119,2013-06-19 21:45:00,
2013-06-19 16:50:00,97.8,70.1,29.84,SE,135,3.0,8.0,41,0.00,,,0.00,WeatherCatV1.13B119,2013-06-19 21:50:00,
2013-06-19 16:55:00,95.5,68.7,29.84,ESE,112,2.0,6.0,42,0.00,,,0.00,WeatherCatV1.13B119,2013-06-19 21:55:00,
2013-06-19 17:00:00,95.5,68.7,29.84,ESE,112,2.0,6.0,42,0.00,,,0.00,WeatherCatV1.13B119,2013-06-19 22:00:00,
2013-06-19 17:05:00,95.5,68.7,29.84,ESE,112,2.0,6.0,42,0.00,,,0.00,WeatherCatV1.13B119,2013-06-19 22:05:00,
2013-06-19 17:10:00,95.5,68.7,29.84,ESE,112,2.0,6.0,42,0.00,,,0.00,WeatherCatV1.13B119,2013-06-19 22:10:00,
2013-06-19 17:15:00,95.5,68.7,29.84,ESE,112,2.0,6.0,42,0.00,,,0.00,WeatherCatV1.13B119,2013-06-19 22:15:00,
2013-06-19 17:20:00,95.5,68.7,29.84,ESE,112,2.0,6.0,42,0.00,,,0.00,WeatherCatV1.13B119,2013-06-19 22:20:00,
2013-06-19 17:25:00,97.8,69.3,29.84,SE,135,2.0,5.0,40,0.00,,,0.00,WeatherCatV1.13B119,2013-06-19 22:25:00,
2013-06-19 17:30:00,97.8,69.3,29.84,SE,135,2.0,5.0,40,0.00,,,0.00,WeatherCatV1.13B119,2013-06-19 22:30:00,
2013-06-19 17:35:00,97.8,69.3,29.84,SE,135,2.0,5.0,40,0.00,,,0.00,WeatherCatV1.13B119,2013-06-19 22:35:00,
2013-06-19 17:40:00,97.8,69.3,29.84,SE,135,2.0,5.0,40,0.00,,,0.00,WeatherCatV1.13B119,2013-06-19 22:40:00,
2013-06-19 17:45:00,97.8,69.3,29.84,SE,135,2.0,5.0,40,0.00,,,0.00,WeatherCatV1.13B119,2013-06-19 22:45:00,
2013-06-19 17:50:00,97.8,69.3,29.84,SE,135,2.0,5.0,40,0.00,,,0.00,WeatherCatV1.13B119,2013-06-19 22:50:00,
2013-06-19 17:55:00,97.2,68.1,29.84,SE,135,2.0,6.0,39,0.00,,,0.00,WeatherCatV1.13B119,2013-06-19 22:55:00,
2013-06-19 18:00:00,97.2,68.1,29.84,SE,135,2.0,6.0,39,0.00,,,0.00,WeatherCatV1.13B119,2013-06-19 23:00:00,
2013-06-19 18:05:00,97.2,68.1,29.84,SE,135,2.0,6.0,39,0.00,,,0.00,WeatherCatV1.13B119,2013-06-19 23:05:00,
2013-06-19 18:10:00,97.2,68.1,29.84,SE,135,2.0,6.0,39,0.00,,,0.00,WeatherCatV1.13B119,2013-06-19 23:10:00,
2013-06-19 18:15:00,97.2,68.1,29.84,SE,135,2.0,6.0,39,0.00,,,0.00,WeatherCatV1.13B119,2013-06-19 23:15:00,
2013-06-19 18:20:00,97.2,68.1,29.84,SE,135,2.0,6.0,39,0.00,,,0.00,WeatherCatV1.13B119,2013-06-19 23:20:00,
2013-06-19 18:25:00,97.4,67.5,29.83,SE,135,2.0,6.0,38,0.00,,,0.00,WeatherCatV1.13B119,2013-06-19 23:25:00,
2013-06-19 18:30:00,97.4,67.5,29.83,SE,135,2.0,6.0,38,0.00,,,0.00,WeatherCatV1.13B119,2013-06-19 23:30:00,
2013-06-19 18:35:00,97.4,67.5,29.83,SE,135,2.0,6.0,38,0.00,,,0.00,WeatherCatV1.13B119,2013-06-19 23:35:00,
2013-06-19 18:40:00,97.4,67.5,29.83,SE,135,2.0,6.0,38,0.00,,,0.00,WeatherCatV1.13B119,2013-06-19 23:40:00,
2013-06-19 18:45:00,97.4,67.5,29.83,SE,135,2.0,6.0,38,0.00,,,0.00,WeatherCatV1.13B119,2013-06-19 23:45:00,
2013-06-19 18:50:00,97.4,67.5,29.83,SE,135,2.0,6.0,38,0.00,,,0.00,WeatherCatV1.13B119,2013-06-19 23:50:00,
2013-06-19 18:55:00,97.3,67.4,29.82,SE,135,1.0,5.0,38,0.00,,,0.00,WeatherCatV1.13B119,2013-06-19 23:55:00,
2013-06-19 19:00:00,97.3,67.4,29.82,SE,135,1.0,5.0,38,0.00,,,0.00,WeatherCatV1.13B119,2013-06-20 00:00:00,
2013-06-19 19:05:00,97.3,67.4,29.82,SE,135,1.0,5.0,38,0.00,,,0.00,WeatherCatV1.13B119,2013-06-20 00:05:00,
2013-06-19 19:10:00,97.3,67.4,29.82,SE,135,1.0,5.0,38,0.00,,,0.00,WeatherCatV1.13B119,2013-06-20 00:10:00,
2013-06-19 19:15:00,97.3,67.4,29.82,SE,135,1.0,5.0,38,0.00,,,0.00,WeatherCatV1.13B119,2013-06-20 00:15:00,
2013-06-19 19:20:00,97.3,67.4,29.82,SE,135,1.0,5.0,38,0.00,,,0.00,WeatherCatV1.13B119,2013-06-20 00:20:00,
2013-06-19 19:25:00,95.0,66.8,29.83,ESE,112,2.0,6.0,40,0.00,,,0.00,WeatherCatV1.13B119,2013-06-20 00:25:00,
2013-06-19 19:30:00,95.0,66.8,29.83,ESE,112,2.0,6.0,40,0.00,,,0.00,WeatherCatV1.13B119,2013-06-20 00:30:00,
2013-06-19 19:35:00,95.0,66.8,29.83,ESE,112,2.0,6.0,40,0.00,,,0.00,WeatherCatV1.13B119,2013-06-20 00:35:00,
2013-06-19 19:40:00,95.0,66.8,29.83,ESE,112,2.0,6.0,40,0.00,,,0.00,WeatherCatV1.13B119,2013-06-20 00:40:00,
2013-06-19 19:45:00,95.0,66.8,29.83,ESE,112,2.0,6.0,40,0.00,,,0.00,WeatherCatV1.13B119,2013-06-20 00:45:00,
2013-06-19 19:50:00,95.0,66.8,29.83,ESE,112,2.0,6.0,40,0.00,,,0.00,WeatherCatV1.13B119,2013-06-20 00:50:00,
2013-06-19 19:55:00,93.3,67.4,29.83,East,90,0.0,3.0,43,0.00,,,0.00,WeatherCatV1.13B119,2013-06-20 00:55:00,
2013-06-19 20:00:00,93.3,67.4,29.83,East,90,0.0,3.0,43,0.00,,,0.00,WeatherCatV1.13B119,2013-06-20 01:00:00,
2013-06-19 20:05:00,93.3,67.4,29.83,East,90,0.0,3.0,43,0.00,,,0.00,WeatherCatV1.13B119,2013-06-20 01:05:00,
2013-06-19 20:10:00,93.3,67.4,29.83,East,90,0.0,3.0,43,0.00,,,0.00,WeatherCatV1.13B119,2013-06-20 01:10:00,
2013-06-19 20:15:00,93.3,67.4,29.83,East,90,0.0,3.0,43,0.00,,,0.00,WeatherCatV1.13B119,2013-06-20 01:15:00,
2013-06-19 20:20:00,93.3,67.4,29.83,East,90,0.0,3.0,43,0.00,,,0.00,WeatherCatV1.13B119,2013-06-20 01:20:00,
2013-06-19 20:25:00,91.4,68.3,29.84,ESE,112,0.0,3.0,47,0.00,,,0.00,WeatherCatV1.13B119,2013-06-20 01:25:00,
2013-06-19 20:30:00,91.4,68.3,29.84,ESE,112,0.0,3.0,47,0.00,,,0.00,WeatherCatV1.13B119,2013-06-20 01:30:00,
2013-06-19 20:35:00,91.4,68.3,29.84,ESE,112,0.0,3.0,47,0.00,,,0.00,WeatherCatV1.13B119,2013-06-20 01:35:00,
2013-06-19 20:40:00,91.4,68.3,29.84,ESE,112,0.0,3.0,47,0.00,,,0.00,WeatherCatV1.13B119,2013-06-20 01:40:00,
2013-06-19 20:45:00,91.4,68.3,29.84,ESE,112,0.0,3.0,47,0.00,,,0.00,WeatherCatV1.13B119,2013-06-20 01:45:00,
2013-06-19 20:50:00,91.4,68.3,29.84,ESE,112,0.0,3.0,47,0.00,,,0.00,WeatherCatV1.13B119,2013-06-20 01:50:00,
2013-06-19 20:55:00,89.8,67.4,29.85,ESE,112,0.0,0.0,48,0.00,,,0.00,WeatherCatV1.13B119,2013-06-20 01:55:00,
2013-06-19 21:00:00,89.8,67.4,29.85,ESE,112,0.0,0.0,48,0.00,,,0.00,WeatherCatV1.13B119,2013-06-20 02:00:00,
2013-06-19 21:05:00,89.8,67.4,29.85,ESE,112,0.0,0.0,48,0.00,,,0.00,WeatherCatV1.13B119,2013-06-20 02:05:00,
2013-06-19 21:10:00,89.8,67.4,29.85,ESE,112,0.0,0.0,48,0.00,,,0.00,WeatherCatV1.13B119,2013-06-20 02:10:00,
2013-06-19 21:15:00,89.8,67.4,29.85,ESE,112,0.0,0.0,48,0.00,,,0.00,WeatherCatV1.13B119,2013-06-20 02:15:00,
2013-06-19 21:20:00,89.8,67.4,29.85,ESE,112,0.0,0.0,48,0.00,,,0.00,WeatherCatV1.13B119,2013-06-20 02:20:00,
2013-06-19 21:25:00,86.5,69.4,29.85,ESE,112,0.0,0.0,57,0.00,,,0.00,WeatherCatV1.13B119,2013-06-20 02:25:00,
2013-06-19 21:30:00,86.5,69.4,29.85,ESE,112,0.0,0.0,57,0.00,,,0.00,WeatherCatV1.13B119,2013-06-20 02:30:00,
2013-06-19 21:35:00,86.5,69.4,29.85,ESE,112,0.0,0.0,57,0.00,,,0.00,WeatherCatV1.13B119,2013-06-20 02:35:00,
2013-06-19 21:40:00,86.5,69.4,29.85,ESE,112,0.0,0.0,57,0.00,,,0.00,WeatherCatV1.13B119,2013-06-20 02:40:00,
2013-06-19 21:45:00,86.5,69.4,29.85,ESE,112,0.0,0.0,57,0.00,,,0.00,WeatherCatV1.13B119,2013-06-20 02:45:00,
2013-06-19 21:50:00,86.5,69.4,29.85,ESE,112,0.0,0.0,57,0.00,,,0.00,WeatherCatV1.13B119,2013-06-20 02:50:00,
2013-06-19 21:55:00,86.5,68.4,29.85,SE,135,0.0,1.0,55,0.00,,,0.00,WeatherCatV1.13B119,2013-06-20 02:55:00,
2013-06-19 22:00:00,86.5,68.4,29.85,SE,135,0.0,1.0,55,0.00,,,0.00,WeatherCatV1.13B119,2013-06-20 03:00:00,
2013-06-19 22:05:00,86.5,68.4,29.85,SE,135,0.0,1.0,55,0.00,,,0.00,WeatherCatV1.13B119,2013-06-20 03:05:00,
2013-06-19 22:10:00,86.5,68.4,29.85,SE,135,0.0,1.0,55,0.00,,,0.00,WeatherCatV1.13B119,2013-06-20 03:10:00,
2013-06-19 22:15:00,86.5,68.4,29.85,SE,135,0.0,1.0,55,0.00,,,0.00,WeatherCatV1.13B119,2013-06-20 03:15:00,
2013-06-19 22:20:00,86.5,68.4,29.85,SE,135,0.0,1.0,55,0.00,,,0.00,WeatherCatV1.13B119,2013-06-20 03:20:00,
2013-06-19 22:25:00,85.2,69.2,29.85,SSE,158,0.0,2.0,59,0.00,,,0.00,WeatherCatV1.13B119,2013-06-20 03:25:00,
2013-06-19 22:30:00,85.2,69.2,29.85,SSE,158,0.0,2.0,59,0.00,,,0.00,WeatherCatV1.13B119,2013-06-20 03:30:00,
2013-06-19 22:35:00,85.2,69.2,29.85,SSE,158,0.0,2.0,59,0.00,,,0.00,WeatherCatV1.13B119,2013-06-20 03:35:00,
2013-06-19 22:40:00,85.2,69.2,29.85,SSE,158,0.0,2.0,59,0.00,,,0.00,WeatherCatV1.13B119,2013-06-20 03:40:00,
2013-06-19 22:45:00,85.2,69.2,29.85,SSE,158,0.0,2.0,59,0.00,,,0.00,WeatherCatV1.13B119,2013-06-20 03:45:00,
2013-06-19 22:50:00,85.2,69.2,29.85,SSE,158,0.0,2.0,59,0.00,,,0.00,WeatherCatV1.13B119,2013-06-20 03:50:00,
2013-06-19 22:55:00,86.0,67.4,29.87,SE,135,2.0,7.0,54,0.00,,,0.00,WeatherCatV1.13B119,2013-06-20 03:55:00,
2013-06-19 23:00:00,86.0,67.4,29.87,SE,135,2.0,7.0,54,0.00,,,0.00,WeatherCatV1.13B119,2013-06-20 04:00:00,
2013-06-19 23:05:00,86.0,67.4,29.87,SE,135,2.0,7.0,54,0.00,,,0.00,WeatherCatV1.13B119,2013-06-20 04:05:00,
2013-06-19 23:10:00,86.0,67.4,29.87,SE,135,2.0,7.0,54,0.00,,,0.00,WeatherCatV1.13B119,2013-06-20 04:10:00,
2013-06-19 23:15:00,86.0,67.4,29.87,SE,135,2.0,7.0,54,0.00,,,0.00,WeatherCatV1.13B119,2013-06-20 04:15:00,
2013-06-19 23:20:00,86.0,67.4,29.87,SE,135,2.0,7.0,54,0.00,,,0.00,WeatherCatV1.13B119,2013-06-20 04:20:00,
2013-06-19 23:25:00,86.0,69.5,29.87,SE,135,3.0,8.0,58,0.00,,,0.00,WeatherCatV1.13B119,2013-06-20 04:25:00,
2013-06-19 23:30:00,86.0,69.5,29.87,SE,135,3.0,8.0,58,0.00,,,0.00,WeatherCatV1.13B119,2013-06-20 04:30:00,
2013-06-19 23:35:00,86.0,69.5,29.87,SE,135,3.0,8.0,58,0.00,,,0.00,WeatherCatV1.13B119,2013-06-20 04:35:00,
2013-06-19 23:40:00,86.0,69.5,29.87,SE,135,3.0,8.0,58,0.00,,,0.00,WeatherCatV1.13B119,2013-06-20 04:40:00,
2013-06-19 23:45:00,86.0,69.5,29.87,SE,135,3.0,8.0,58,0.00,,,0.00,WeatherCatV1.13B119,2013-06-20 04:45:00,
2013-06-19 23:50:00,86.0,69.5,29.87,SE,135,3.0,8.0,58,0.00,,,0.00,WeatherCatV1.13B119,2013-06-20 04:50:00,
2013-06-19 23:55:00,84.9,69.4,29.89,SE,135,4.0,16.0,60,0.00,,,0.00,WeatherCatV1.13B119,2013-06-20 04:55:00,